Regional Weather Roundup
Issued by NWS

Home | Current Version | Previous Version | Graphics & Text | Print | Product List | Glossary Off
Versions: 1 2 3 4 5 6 7 8 9 10 11 12 13 14 15 16 17 18 19 20 21 22 23 24 25 26 27 28 29 30 31 32 33 34 35 36 37 38 39 40 41 42 43 44 45 46 47 48 49 50

940
ASUS43 KMKX 200520
RWRWI

WISCONSIN REGIONAL WEATHER ROUNDUP
NATIONAL WEATHER SERVICE MILWAUKEE/SULLIVAN WI
1100 PM CST SUN NOV 19 2017

NOTE: "FAIR" INDICATES FEW OR NO CLOUDS BELOW 12,000 FEET WITH NO
SIGNIFICANT WEATHER AND/OR OBSTRUCTIONS TO VISIBILITY.

WIZ001-002-006>008-014>016-023>028-200600-
NORTHWEST WISCONSIN

CITY           SKY/WX    TMP DP  RH WIND       PRES   REMARKS
SUPERIOR ARPT  CLEAR     17  15  94 CALM      29.80S
ASHLAND        CLOUDY    21  17  84 CALM      29.81F
HAYWARD        CLEAR     20  16  84 N3        29.78F
SIREN          CLEAR     20  17  86 CALM      29.77F
CUMBERLAND     CLEAR     23  18  80 CALM      29.78F
RICE LAKE      CLEAR     23  18  81 SE5       29.81F WCI  17
CHETEK         CLEAR     23  18  80 E3        29.80F
LADYSMITH      CLEAR     24  19  80 CALM      29.81F
EAU CLAIRE     CLEAR     26  21  81 SW6       29.82F WCI  19
MENOMONIE      CLEAR     29  25  86 SE3       29.82F
NEW RICHMOND   CLEAR     30  24  81 S5        29.79F WCI  25
OSCEOLA        CLEAR     28  24  82 CALM      29.81F
$$

WIZ003>005-009-010-017-018-200600-
NORTH CENTRAL WISCONSIN

CITY           SKY/WX    TMP DP  RH WIND       PRES   REMARKS
MANITOWISH WTR PTCLDY    16  16 100 CALM      29.79F
ARBOR VITAE    CLOUDY    19  17  89 CALM      29.79F
WOODRUFF       CLOUDY    19  17  89 CALM      29.79F
RHINELANDER    CLEAR    N/A N/A N/A CALM      29.81F
EAGLE RIVER    CLEAR     13  13  98 CALM      29.79F
LAND O LAKES   CLOUDY    12  10  91 CALM      29.81F
PHILLIPS       CLEAR     22  17  80 CALM      29.79S
TOMAHAWK       PTCLDY    18  15  88 CALM      29.82F
MEDFORD        CLEAR     22  18  83 S8        29.81F WCI  12
MERRILL        PTCLDY    24  17  74 CALM      29.83F
$$

WIZ029-030-035-036-043>047-200600-
CENTRAL WISCONSIN

CITY           SKY/WX    TMP DP  RH WIND       PRES   REMARKS
WAUSAU         CLOUDY    25  17  72 CALM      29.83F
MOSINEE        NOT AVBL
MARSHFIELD     CLEAR     23  17  78 SW5       29.83F WCI  17
STEVENS POINT  CLOUDY    23  17  79 SW6       29.87F WCI  16
WAUPACA        CLOUDY    28  19  71 S3        29.90F
WAUTOMA        PTCLDY    25  19  78 S3        29.91F
WISC RAPIDS    PTCLDY    27  20  75 SW7       29.88F WCI  19
CAMP DOUGLAS   CLEAR    N/A N/A N/A SW7       29.90F
$$

WIZ011>013-019>022-031-037>040-048>050-200600-
NORTHEAST WISCONSIN

CITY           SKY/WX    TMP DP  RH WIND       PRES   REMARKS
ANTIGO         CLOUDY    21  16  81 S3        29.83F
SHAWANO        CLOUDY    28  18  67 CALM      29.88F
OCONTO         MOCLDY    27  17  65 CALM      29.89F
STURGEON BAY   CLOUDY    30  20  66 SW8       29.90F WCI  22
GREEN BAY      CLEAR     30  21  69 SW7       29.90F WCI  23
MANITOWOC      CLEAR     30  20  66 S5        29.93F WCI  25
APPLETON       PTCLDY    27  18  69 SW9       29.89F WCI  17
CLINTONVILLE   PTCLDY    27  18  69 SW6       29.88F WCI  20
OSHKOSH        CLOUDY    29  21  72 SW10      29.91F WCI  20
$$

WIZ032>034-041-042-053>061-200600-
SOUTHWEST WISCONSIN

CITY           SKY/WX    TMP DP  RH WIND       PRES   REMARKS
LA CROSSE      CLOUDY    35  26  69 SE9       29.89F WCI  28
SPARTA         CLOUDY    31  24  75 S3        29.90F
VIROQUA        CLOUDY    31  26  81 SW8       29.89F WCI  24
BOSCOBEL       CLOUDY    31  22  69 SW6       29.95F WCI  25
PRAIRIE DU CHI CLOUDY    35  23  60 CALM      29.94F
PLATTEVILLE    CLOUDY    29  25  82 S9        29.98S WCI  21
$$

WIZ056-057-062-063-064-067-068-200600-
SOUTH CENTRAL WISCONSIN

CITY           SKY/WX    TMP DP  RH WIND       PRES   REMARKS
REEDSBURG      CLEAR     31  22  67 CALM      29.92F
BARABOO/DELLS  CLEAR     31  22  68 SW10G17   29.92F WCI  22
LONE ROCK      CLOUDY    24  21  88 CALM      29.96F
MINERAL POINT  CLOUDY    32  27  80 S7        29.95F WCI  26
MADISON        PTCLDY    32  22  66 SW10G20   29.95F WCI  24
MIDDLETON      CLEAR     32  23  68 SW10      29.95F WCI  24
WATERTOWN      CLEAR     28  22  79 SW7       29.96F WCI  21
MONROE         CLOUDY    30  23  74 SW16      29.97F WCI  19
JANESVILLE     CLEAR     28  23  80 SW8       30.00F WCI  20
$$

WIZ051-052-058>065-066-070>072-200600-
SOUTHEAST WISCONSIN

CITY           SKY/WX    TMP DP  RH WIND       PRES   REMARKS
MILWAUKEE      MOCLDY    32  21  64 SW10      29.99F WCI  24
WAUKESHA       PTCLDY    28  19  69 SW6       29.98F WCI  22
MILWAUKEE/TIMM PTCLDY    30  19  64 SW9       29.99F WCI  22
RACINE         CLOUDY    30  20  66 SW12      30.02S WCI  20
BURLINGTON     CLEAR     32  27  80 SW13      30.00F WCI  22
KENOSHA        CLOUDY    30  20  66 SW14      30.01F WCI  19
FOND DU LAC    CLOUDY    30  19  63 SW14      29.92F WCI  19
SHEBOYGAN      PTCLDY    28  21  75 SW7       29.93F WCI  21
WEST BEND      PTCLDY    30  21  69 SW9       29.95F WCI  22
JUNEAU         PTCLDY    26  21  79 SW10      29.96F WCI  17
$$

LSZ147-162-200600-
LAKE SUPERIOR

STATION/POSITION TIME  TEMP    WIND        PRES    WAVE
                       AIR SEA DIR/SP/G            HT/PER
                 (UTC) (F)     (DEG/KT/KT) (MB)    (FT/S)
DEVILS ISLAND    0500   29     180/  4/  5 1010.4F
SAXON HARBOR     0440   26     190/  6/  8 1009.1F
$$

LMZ867-665-643>646-200600-
LAKE MICHIGAN

STATION/POSITION TIME  TEMP    WIND        PRES    WAVE
                       AIR SEA DIR/SP/G            HT/PER
                 (UTC) (F)     (DEG/KT/KT) (MB)    (FT/S)
N MID LAKE BUOY  0450   34 48  260/ 16/ 19 1013.2F   4/ 4
NORTHPORT PIER   0440   32     260/  4/  9 1012.2F
KEWAUNEE LAKESHO 0454   31     200/  4/  5 1012.5F
SHEBOYGAN LAKESH 0500   30     230/ 11/ 13 1014.4F
PORT WASHINGTON  0440   31     250/ 10/ 14 1015.6F
MILWAUKEE LAKESH 0500   32     240/ 17/ 19   N/A
S MID LAKE BUOY  0450   38 49  290/ 21/ 25 1016.8F   5/ 5
KENOSHA   LAKESH 0500   32     230/ 11/ 16 1016.6
$$

TC  - TEMPERATURE IN CELSIUS
VSB - VISIBILITY IN STATUTE MILES
WCI - WIND CHILL INDEX
HX  - HEAT INDEX





USA.gov is the U.S. government's official web portal to all federal, state and local government web resources and services.